SCP
0 0 0 0 0 0 0 0 0 0 0 0 0 0 0 0 0 0 0 0 0 0 0 0 0 0 0 0 0 0 0 0 0 0 0 0 0 0 0 1 1 1 0 0
0 0 0 0 0 0 0 0 0 0 -0 0 0 0 0 0 0 0 0 0 0 0 0 0 0 0 0 0 0 0 0 0 0 0 0 0 0 0 0 1 1 1 0 0
0 0 0 0 0 0 0 0 0 0 0 0 0 0 0 0 0 0 0 0 0 0 -0 0 0 0 0 0 0 0 0 0 0 0 0 0 0 0 0 1 1 0 0 0
0 0 0 0 0 0 0 0 0 0 0 0 0 0 0 0 0 0 0 0 0 0 -0 -0 0 0 0 0 0 0 0 0 0 0 0 0 0 0 0 0 1 0 0 0
0 0 0 0 0 0 0 0 0 0 0 0 0 0 0 0 0 0 0 0 0 0 0 0 0 0 0 0 0 0 0 0 0 0 0 0 0 0 0 0 0 0 0 0
0 0 0 0 0 0 0 0 0 0 0 0 0 0 0 0 0 0 0 0 0 0 0 0 0 0 0 0 0 0 0 0 0 0 0 0 0 0 0 0 0 0 0 0
0 0 0 0 0 0 0 0 0 0 0 0 0 0 0 0 0 0 0 0 0 0 0 0 0 0 0 0 0 0 0 0 0 0 0 0 0 0 0 0 0 0 0 0
0 0 0 0 0 0 0 0 0 0 0 0 0 0 0 0 0 0 0 0 0 0 0 0 0 0 0 0 0 0 0 0 0 0 0 0 0 0 0 0 0 0 0 0
0 0 0 0 0 0 0 0 0 -0 0 0 0 0 -0 0 0 0 0 0 0 0 0 0 0 0 0 0 0 0 0 0 0 0 0 0 0 0 0 0 0 0 0 0
0 0 0 -0 0 0 -0 0 0 0 0 0 0 0 0 0 0 0 0 0 -0 0 0 0 0 0 0 0 0 0 0 0 0 0 0 0 0 0 0 0 0 0 0 0
0 0 0 0 0 -0 0 0 0 0 0 0 0 0 0 0 0 0 0 0 0 -0 -0 -0 0 -0 0 0 0 0 0 0 0 0 0 0 0 0 0 0 0 0 0 0
0 0 0 0 0 0 0 0 0 0 -0 -0 0 0 0 0 0 0 0 0 -0 -0 -0 -0 -0 0 0 -0 -0 0 0 0 0 0 0 0 0 0 0 0 0 0 0 0
-0 0 0 0 0 0 0 -0 0 -0 -0 -0 -0 0 0 0 0 0 0 0 0 -0 -0 -0 -0 -0 -0 0 -0 -0 -0 0 0 0 0 0 0 0 0 0 0 0 0 0
0 -0 0 0 0 0 0 -0 -0 -0 0 0 0 0 0 0 0 0 0 0 0 0 -0 -0 -0 -0 -0 -0 -0 0 0 0 0 0 0 0 0 0 0 0 0 0 0 0
-0 -0 0 0 0 0 0 -0 -0 -0 -0 0 0 0 0 0 0 0 0 0 0 0 0 -0 -0 -0 -0 -0 -0 -0 -0 0 0 0 0 0 0 0 0 0 0 0 0 0
0 0 0 0 0 -0 -0 -0 -0 -0 -0 0 0 0 0 0 0 0 0 0 0 0 0 0 0 0 -0 -0 -0 -0 0 -0 -0 -0 0 0 0 0 0 0 0 0 0 0
0 0 0 0 -0 -0 -0 0 -0 -0 -0 0 -0 -0 0 0 0 0 0 0 0 0 0 0 0 0 0 0 0 0 -0 0 0 0 -0 -0 0 0 0 0 0 -0 0 0
-0 -0 -0 -0 0 -0 0 -0 -0 -0 -0 -0 -0 0 0 0 0 0 0 0 0 0 0 0 0 0 0 0 0 0 0 0 0 0 0 0 0 0 0 0 0 0 0 0
-0 -0 -0 -0 0 0 -0 -0 -0 -0 -0 -0 -0 -0 0 0 0 0 0 0 0 0 0 0 0 0 0 0 0 0 0 0 0 0 0 0 0 0 0 -0 0 0 0 0
0 -0 -0 -0 0 0 -0 -0 0 0 -0 -0 -0 -0 -0 0 0 0 0 0 0 0 0 0 0 0 0 0 0 0 0 0 0 0 0 0 0 0 0 0 0 0 0 0
0 0 -0 -0 0 0 0 0 0 0 -0 -0 -0 -0 -0 0 0 0 -0 0 0 0 0 0 0 0 0 0 0 0 0 0 0 0 0 0 0 0 0 0 0 0 0 0
0 -0 -0 -0 0 0 0 0 -0 -0 -0 -0 -0 -0 -0 0 -0 0 0 0 0 -0 0 0 0 0 0 0 0 0 0 0 0 0 0 0 0 0 0 0 0 0 0 0
-0 -0 -0 -0 -0 0 0 0 0 -0 -0 -0 -0 -0 -0 -0 -0 -0 -0 -0 0 -0 0 0 -0 0 0 0 0 0 0 0 0 0 0 0 0 0 0 0 0 0 0 0
-0 0 0 0 -0 -0 -0 -0 0 0 -0 -0 -0 -0 -0 -0 0 0 0 -0 -0 -0 0 0 -0 -0 -0 0 0 0 0 0 0 0 0 0 0 0 0 0 0 0 0 0
-0 -0 0 0 -0 0 -0 -0 -0 -0 -0 -0 -0 -0 -0 0 -0 -0 0 -0 -0 -0 -0 -0 -0 -0 0 0 0 0 0 0 0 0 0 0 0 0 0 0 0 0 0 0
-0 -0 -0 -0 -0 0 -0 -0 -0 -0 -0 -0 -0 -0 -0 -0 -0 -0 -0 -0 -0 -0 -0 -0 -0 -0 -0 -0 -0 -0 0 0 0 0 0 0 0 0 0 0 0 0 0 0
-0 -0 -0 0 0 0 -0 -0 0 0 -0 0 -0 -0 -0 -0 -0 -0 -0 -0 -0 -0 -0 -0 -0 -0 -0 -0 -0 -0 -0 -0 -0 0 0 0 0 0 0 0 0 0 0 0
Wind_Speed_500mb
37 41 36 31 30 28 34 42 40 50 49 48 48 44 43 33 30 29 32 42 40 36 30 26 27 28 25 7 43 47 40 25 30 49 54 57 53 52 49 45 41 39 38 38
24 23 27 37 41 43 45 48 48 51 59 42 35 24 26 33 33 37 43 49 41 38 34 32 29 30 28 22 16 38 51 51 45 27 51 66 68 62 60 54 49 48 48 48
26 15 18 25 36 38 40 38 31 36 39 21 25 28 36 38 38 49 56 50 47 46 40 41 48 42 43 37 28 20 20 67 63 39 21 34 56 67 67 62 59 60 59 60
14 12 12 5 4 5 8 20 22 32 34 31 34 36 46 46 53 61 57 59 59 58 61 58 51 46 43 49 40 38 37 31 41 69 37 27 42 53 62 66 69 70 71 65
7 11 25 18 3 4 7 27 22 32 29 27 42 60 70 60 43 48 63 71 72 71 67 60 56 54 52 47 47 44 42 43 42 39 53 37 34 34 39 45 57 68 67 63
6 8 8 8 4 7 5 22 14 19 38 50 60 35 35 53 62 82 79 78 80 77 72 68 62 55 54 55 51 49 44 41 48 46 48 49 43 42 39 39 46 51 55 55
16 9 14 5 8 13 10 12 42 43 62 63 39 47 82 82 89 83 89 83 82 87 87 76 67 63 65 62 58 49 46 45 47 52 57 61 58 53 52 54 53 57 62 61
5 8 9 11 16 12 26 63 45 65 72 62 67 82 89 90 91 87 89 93 89 85 87 78 78 73 70 65 57 52 53 54 53 50 51 50 64 69 66 63 65 67 68 70
6 6 4 13 23 41 33 46 73 70 75 80 78 87 93 94 95 99 96 92 82 88 83 75 80 84 81 71 62 64 63 64 62 57 55 54 58 63 64 65 68 58 59 62
9 1 25 39 32 41 57 58 71 74 73 79 93 98 99 96 82 84 87 71 87 81 72 80 78 75 80 73 64 60 62 60 55 55 54 55 54 51 51 56 57 56 58 59
13 19 37 5 46 59 71 75 69 75 87 90 96 96 96 96 96 88 85 87 74 68 81 77 69 67 71 62 61 62 60 56 57 54 50 49 49 48 55 56 59 58 58 55
10 24 21 45 52 58 64 74 77 83 98 96 92 101 102 95 91 90 82 79 76 73 64 68 67 64 58 57 57 57 54 57 55 55 56 54 54 55 56 56 54 54 61 60
11 27 38 50 49 53 70 79 86 90 94 102 101 92 92 94 86 87 81 72 64 60 54 54 50 52 49 47 53 55 54 49 47 50 58 62 58 52 50 34 42 49 51 52
17 37 38 36 63 74 70 82 89 91 89 88 91 91 90 88 87 78 73 66 54 45 45 42 43 46 41 36 44 52 56 58 57 58 58 53 58 60 58 50 55 58 54 59
29 35 41 51 58 66 74 79 89 91 92 99 90 92 93 91 85 75 60 50 43 38 36 36 36 39 36 38 41 43 44 49 50 51 48 47 53 50 46 40 40 44 52 46
41 42 42 48 56 66 71 83 84 93 95 100 102 103 97 85 81 73 62 48 41 38 34 30 30 28 28 32 38 45 46 43 42 45 46 46 48 47 44 47 46 46 47 40
41 47 51 55 58 67 69 74 80 89 94 96 105 102 92 87 79 71 59 47 42 29 20 17 20 17 22 29 33 37 39 39 44 49 45 42 42 43 46 48 54 57 57 44
33 37 38 40 48 54 67 73 80 89 96 100 101 96 92 90 88 78 62 60 48 34 20 20 17 15 20 22 27 31 33 33 34 38 44 45 42 40 39 39 41 41 47 48
32 34 35 39 42 47 55 69 80 86 94 97 94 93 86 84 85 76 64 65 72 60 43 31 13 3 10 16 23 25 25 26 29 29 30 32 36 40 41 42 39 36 36 39
37 37 38 42 45 49 53 66 78 85 97 100 102 98 97 96 90 83 76 72 73 62 50 36 33 21 10 6 12 18 26 28 27 27 28 27 27 25 25 29 31 37 38 44
37 42 43 45 47 47 54 61 74 84 96 97 99 98 91 90 87 90 93 87 77 67 58 45 38 32 28 22 16 12 14 21 25 25 24 24 24 24 21 21 26 26 24 28
36 41 45 43 47 50 55 60 69 81 91 98 99 100 94 96 94 85 82 83 74 67 55 48 39 38 38 36 30 24 21 18 21 23 23 27 29 29 31 20 24 28 22 28
36 42 39 42 43 47 53 62 67 77 85 91 98 99 99 89 89 98 98 85 78 74 64 55 44 35 31 34 30 24 25 31 35 30 25 23 29 35 25 21 31 36 36 43
40 40 37 36 40 51 58 59 60 69 79 90 95 92 94 99 92 85 77 80 72 76 69 63 58 54 48 46 40 39 37 36 33 28 21 24 29 35 35 26 25 30 37 55
39 39 41 43 47 52 51 49 51 66 78 87 96 99 98 93 90 85 85 85 80 75 70 67 63 62 57 52 47 44 43 41 40 36 33 30 32 34 38 38 41 41 37 33
41 43 42 44 44 46 45 46 50 60 74 86 94 99 100 99 93 87 87 87 83 81 76 70 65 60 55 51 46 40 36 34 34 33 32 33 35 37 36 35 35 40 43 45
39 45 48 49 53 52 53 51 52 59 66 75 89 95 99 102 101 98 93 89 88 83 78 75 68 62 55 49 46 41 36 30 27 25 26 27 27 28 29 27 31 39 36 53
Wind_Direction_500mb
258 264 268 264 258 245 229 243 253 273 275 287 296 297 292 285 287 302 313 321 324 320 318 333 351 360 2 282 245 274 303 295 291 238 226 236 226 219 212 209 211 213 212 216
266 274 272 270 263 256 253 253 257 264 277 287 295 284 267 273 287 298 305 311 311 313 303 304 312 321 335 348 344 240 260 271 297 311 232 226 230 227 224 218 218 221 225 219
277 299 296 270 260 260 258 257 259 261 273 313 281 279 278 287 290 296 301 301 300 300 297 295 294 296 294 302 300 285 274 243 263 277 305 245 231 231 230 226 224 225 222 220
277 297 254 28 342 342 291 274 260 269 274 281 294 289 288 285 288 290 295 298 296 293 292 291 284 284 284 285 284 281 275 266 248 251 271 276 243 237 236 231 230 223 218 221
240 237 293 291 89 317 337 297 289 288 305 309 308 301 287 286 282 288 293 293 290 288 286 284 281 280 281 279 276 274 271 269 262 238 245 251 238 234 227 225 223 219 221 222
177 243 267 46 157 351 294 281 37 337 311 305 304 287 283 293 293 295 290 288 288 287 284 278 274 273 277 277 272 269 264 262 260 252 245 243 242 222 224 220 217 219 225 230
227 254 276 4 338 309 268 342 317 315 313 305 291 278 289 292 293 290 287 284 289 282 278 274 271 269 270 271 269 266 264 261 258 257 255 251 250 242 236 229 231 230 236 239
199 236 265 23 340 322 319 305 305 312 307 298 293 293 292 293 291 290 289 280 282 280 276 267 272 265 263 262 264 264 261 259 258 257 253 252 252 247 246 247 244 241 242 245
241 296 338 297 298 301 303 302 308 310 307 301 297 295 295 294 291 288 285 281 275 281 267 268 272 261 256 261 264 260 260 258 255 253 252 249 245 248 248 246 245 242 242 244
318 147 320 315 312 323 317 310 309 305 303 309 302 299 298 299 300 299 297 276 293 274 265 274 273 254 252 258 262 256 257 254 247 247 245 239 237 239 241 241 243 243 243 244
270 295 325 306 319 320 319 314 311 311 306 304 305 304 304 304 304 301 298 292 284 274 282 271 265 255 249 255 252 249 250 246 245 248 242 234 238 242 238 240 238 240 245 245
292 329 297 298 312 317 312 314 316 313 310 309 311 308 308 306 306 303 301 296 290 284 273 273 271 264 257 249 243 238 250 248 239 240 239 241 247 246 247 242 238 243 237 234
273 301 302 301 307 316 318 318 317 314 313 313 314 314 313 310 310 310 308 305 299 290 278 274 265 264 256 245 231 241 252 227 227 236 242 247 240 230 235 243 243 239 239 240
291 319 313 318 317 321 320 319 319 317 320 319 319 321 321 321 320 319 317 317 311 296 281 269 261 255 248 232 232 243 239 240 237 232 238 229 228 235 247 247 246 246 242 246
317 316 308 313 316 321 326 325 324 324 329 330 333 331 331 329 330 332 336 331 316 306 298 279 260 254 245 236 232 227 232 233 231 232 228 233 243 242 238 227 233 244 254 251
318 320 324 325 325 327 329 330 327 327 335 335 336 337 340 342 340 343 351 350 338 325 312 296 279 261 241 229 226 227 225 223 225 228 233 238 237 238 242 246 246 238 241 243
325 331 332 328 331 331 329 330 330 332 337 340 340 343 347 348 351 1 8 4 356 338 333 314 301 274 240 222 222 226 223 226 230 229 232 235 242 245 243 238 243 241 240 238
323 319 322 324 329 332 335 336 338 343 346 348 349 350 354 2 0 5 12 17 22 25 5 321 291 252 228 217 218 219 220 220 224 230 230 230 231 234 236 235 239 238 235 234
348 338 339 342 346 343 343 345 349 349 352 354 353 357 2 5 11 16 22 19 29 29 33 31 8 258 215 213 208 204 205 202 203 214 222 227 229 229 229 228 230 236 239 237
353 353 351 355 1 358 352 3 1 353 0 3 4 7 11 15 20 22 27 31 31 28 41 47 54 71 94 141 185 196 199 200 208 211 211 217 222 227 235 243 249 260 251 237
350 350 353 357 2 3 6 10 5 358 4 7 9 10 10 16 26 28 30 32 31 42 55 61 68 66 63 70 102 145 168 189 202 210 218 227 233 248 243 225 196 212 196 194
354 355 356 3 6 8 12 16 10 10 10 10 13 17 17 22 28 36 36 30 34 47 52 56 65 78 83 83 85 87 95 100 133 152 163 172 168 165 170 177 182 169 163 178
3 2 6 11 11 12 17 27 17 18 16 15 19 20 26 29 28 26 27 34 39 50 54 59 59 67 73 77 92 93 101 122 138 137 138 142 141 152 146 140 153 156 151 155
12 15 17 16 20 24 24 21 17 24 26 28 30 30 25 25 34 37 38 39 43 51 52 58 63 61 62 69 72 79 82 89 101 114 117 120 125 127 131 140 170 139 129 144
25 26 27 28 30 33 27 20 21 25 27 30 34 35 36 35 33 32 38 41 41 47 49 52 58 63 63 66 71 80 83 88 90 95 101 105 103 115 116 117 126 145 147 135
39 39 37 35 34 30 27 25 24 25 27 28 34 34 36 37 36 36 39 44 42 44 44 47 51 55 61 65 68 72 79 89 94 96 100 103 107 110 112 116 126 134 140 146
45 43 41 39 36 31 28 29 26 23 29 31 35 35 34 35 36 37 38 40 41 43 44 43 44 50 53 60 65 66 67 73 84 90 97 100 103 107 114 117 135 136 139 152
Wind_Speed_850mb
37 41 36 31 30 28 34 42 40 50 49 48 48 44 43 33 30 29 32 42 40 36 30 26 27 28 25 7 43 47 40 25 30 49 54 57 53 52 49 45 41 39 38 38
24 23 27 37 41 43 45 48 48 51 59 42 35 24 26 33 33 37 43 49 41 38 34 32 29 30 28 22 16 38 51 51 45 27 51 66 68 62 60 54 49 48 48 48
26 15 18 25 36 38 40 38 31 36 39 21 25 28 36 38 38 49 56 50 47 46 40 41 48 42 43 37 28 20 20 67 63 39 21 34 56 67 67 62 59 60 59 60
14 12 12 5 4 5 8 20 22 32 34 31 34 36 46 46 53 61 57 59 59 58 61 58 51 46 43 49 40 38 37 31 41 69 37 27 42 53 62 66 69 70 71 65
7 11 25 18 3 4 7 27 22 32 29 27 42 60 70 60 43 48 63 71 72 71 67 60 56 54 52 47 47 44 42 43 42 39 53 37 34 34 39 45 57 68 67 63
6 8 8 8 4 7 5 22 14 19 38 50 60 35 35 53 62 82 79 78 80 77 72 68 62 55 54 55 51 49 44 41 48 46 48 49 43 42 39 39 46 51 55 55
16 9 14 5 8 13 10 12 42 43 62 63 39 47 82 82 89 83 89 83 82 87 87 76 67 63 65 62 58 49 46 45 47 52 57 61 58 53 52 54 53 57 62 61
5 8 9 11 16 12 26 63 45 65 72 62 67 82 89 90 91 87 89 93 89 85 87 78 78 73 70 65 57 52 53 54 53 50 51 50 64 69 66 63 65 67 68 70
6 6 4 13 23 41 33 46 73 70 75 80 78 87 93 94 95 99 96 92 82 88 83 75 80 84 81 71 62 64 63 64 62 57 55 54 58 63 64 65 68 58 59 62
9 1 25 39 32 41 57 58 71 74 73 79 93 98 99 96 82 84 87 71 87 81 72 80 78 75 80 73 64 60 62 60 55 55 54 55 54 51 51 56 57 56 58 59
13 19 37 5 46 59 71 75 69 75 87 90 96 96 96 96 96 88 85 87 74 68 81 77 69 67 71 62 61 62 60 56 57 54 50 49 49 48 55 56 59 58 58 55
10 24 21 45 52 58 64 74 77 83 98 96 92 101 102 95 91 90 82 79 76 73 64 68 67 64 58 57 57 57 54 57 55 55 56 54 54 55 56 56 54 54 61 60
11 27 38 50 49 53 70 79 86 90 94 102 101 92 92 94 86 87 81 72 64 60 54 54 50 52 49 47 53 55 54 49 47 50 58 62 58 52 50 34 42 49 51 52
17 37 38 36 63 74 70 82 89 91 89 88 91 91 90 88 87 78 73 66 54 45 45 42 43 46 41 36 44 52 56 58 57 58 58 53 58 60 58 50 55 58 54 59
29 35 41 51 58 66 74 79 89 91 92 99 90 92 93 91 85 75 60 50 43 38 36 36 36 39 36 38 41 43 44 49 50 51 48 47 53 50 46 40 40 44 52 46
41 42 42 48 56 66 71 83 84 93 95 100 102 103 97 85 81 73 62 48 41 38 34 30 30 28 28 32 38 45 46 43 42 45 46 46 48 47 44 47 46 46 47 40
41 47 51 55 58 67 69 74 80 89 94 96 105 102 92 87 79 71 59 47 42 29 20 17 20 17 22 29 33 37 39 39 44 49 45 42 42 43 46 48 54 57 57 44
33 37 38 40 48 54 67 73 80 89 96 100 101 96 92 90 88 78 62 60 48 34 20 20 17 15 20 22 27 31 33 33 34 38 44 45 42 40 39 39 41 41 47 48
32 34 35 39 42 47 55 69 80 86 94 97 94 93 86 84 85 76 64 65 72 60 43 31 13 3 10 16 23 25 25 26 29 29 30 32 36 40 41 42 39 36 36 39
37 37 38 42 45 49 53 66 78 85 97 100 102 98 97 96 90 83 76 72 73 62 50 36 33 21 10 6 12 18 26 28 27 27 28 27 27 25 25 29 31 37 38 44
37 42 43 45 47 47 54 61 74 84 96 97 99 98 91 90 87 90 93 87 77 67 58 45 38 32 28 22 16 12 14 21 25 25 24 24 24 24 21 21 26 26 24 28
36 41 45 43 47 50 55 60 69 81 91 98 99 100 94 96 94 85 82 83 74 67 55 48 39 38 38 36 30 24 21 18 21 23 23 27 29 29 31 20 24 28 22 28
36 42 39 42 43 47 53 62 67 77 85 91 98 99 99 89 89 98 98 85 78 74 64 55 44 35 31 34 30 24 25 31 35 30 25 23 29 35 25 21 31 36 36 43
40 40 37 36 40 51 58 59 60 69 79 90 95 92 94 99 92 85 77 80 72 76 69 63 58 54 48 46 40 39 37 36 33 28 21 24 29 35 35 26 25 30 37 55
39 39 41 43 47 52 51 49 51 66 78 87 96 99 98 93 90 85 85 85 80 75 70 67 63 62 57 52 47 44 43 41 40 36 33 30 32 34 38 38 41 41 37 33
41 43 42 44 44 46 45 46 50 60 74 86 94 99 100 99 93 87 87 87 83 81 76 70 65 60 55 51 46 40 36 34 34 33 32 33 35 37 36 35 35 40 43 45
39 45 48 49 53 52 53 51 52 59 66 75 89 95 99 102 101 98 93 89 88 83 78 75 68 62 55 49 46 41 36 30 27 25 26 27 27 28 29 27 31 39 36 53
Wind_Direction_850mb
258 264 268 264 258 245 229 243 253 273 275 287 296 297 292 285 287 302 313 321 324 320 318 333 351 360 2 282 245 274 303 295 291 238 226 236 226 219 212 209 211 213 212 216
266 274 272 270 263 256 253 253 257 264 277 287 295 284 267 273 287 298 305 311 311 313 303 304 312 321 335 348 344 240 260 271 297 311 232 226 230 227 224 218 218 221 225 219
277 299 296 270 260 260 258 257 259 261 273 313 281 279 278 287 290 296 301 301 300 300 297 295 294 296 294 302 300 285 274 243 263 277 305 245 231 231 230 226 224 225 222 220
277 297 254 28 342 342 291 274 260 269 274 281 294 289 288 285 288 290 295 298 296 293 292 291 284 284 284 285 284 281 275 266 248 251 271 276 243 237 236 231 230 223 218 221
240 237 293 291 89 317 337 297 289 288 305 309 308 301 287 286 282 288 293 293 290 288 286 284 281 280 281 279 276 274 271 269 262 238 245 251 238 234 227 225 223 219 221 222
177 243 267 46 157 351 294 281 37 337 311 305 304 287 283 293 293 295 290 288 288 287 284 278 274 273 277 277 272 269 264 262 260 252 245 243 242 222 224 220 217 219 225 230
227 254 276 4 338 309 268 342 317 315 313 305 291 278 289 292 293 290 287 284 289 282 278 274 271 269 270 271 269 266 264 261 258 257 255 251 250 242 236 229 231 230 236 239
199 236 265 23 340 322 319 305 305 312 307 298 293 293 292 293 291 290 289 280 282 280 276 267 272 265 263 262 264 264 261 259 258 257 253 252 252 247 246 247 244 241 242 245
241 296 338 297 298 301 303 302 308 310 307 301 297 295 295 294 291 288 285 281 275 281 267 268 272 261 256 261 264 260 260 258 255 253 252 249 245 248 248 246 245 242 242 244
318 147 320 315 312 323 317 310 309 305 303 309 302 299 298 299 300 299 297 276 293 274 265 274 273 254 252 258 262 256 257 254 247 247 245 239 237 239 241 241 243 243 243 244
270 295 325 306 319 320 319 314 311 311 306 304 305 304 304 304 304 301 298 292 284 274 282 271 265 255 249 255 252 249 250 246 245 248 242 234 238 242 238 240 238 240 245 245
292 329 297 298 312 317 312 314 316 313 310 309 311 308 308 306 306 303 301 296 290 284 273 273 271 264 257 249 243 238 250 248 239 240 239 241 247 246 247 242 238 243 237 234
273 301 302 301 307 316 318 318 317 314 313 313 314 314 313 310 310 310 308 305 299 290 278 274 265 264 256 245 231 241 252 227 227 236 242 247 240 230 235 243 243 239 239 240
291 319 313 318 317 321 320 319 319 317 320 319 319 321 321 321 320 319 317 317 311 296 281 269 261 255 248 232 232 243 239 240 237 232 238 229 228 235 247 247 246 246 242 246
317 316 308 313 316 321 326 325 324 324 329 330 333 331 331 329 330 332 336 331 316 306 298 279 260 254 245 236 232 227 232 233 231 232 228 233 243 242 238 227 233 244 254 251
318 320 324 325 325 327 329 330 327 327 335 335 336 337 340 342 340 343 351 350 338 325 312 296 279 261 241 229 226 227 225 223 225 228 233 238 237 238 242 246 246 238 241 243
325 331 332 328 331 331 329 330 330 332 337 340 340 343 347 348 351 1 8 4 356 338 333 314 301 274 240 222 222 226 223 226 230 229 232 235 242 245 243 238 243 241 240 238
323 319 322 324 329 332 335 336 338 343 346 348 349 350 354 2 0 5 12 17 22 25 5 321 291 252 228 217 218 219 220 220 224 230 230 230 231 234 236 235 239 238 235 234
348 338 339 342 346 343 343 345 349 349 352 354 353 357 2 5 11 16 22 19 29 29 33 31 8 258 215 213 208 204 205 202 203 214 222 227 229 229 229 228 230 236 239 237
353 353 351 355 1 358 352 3 1 353 0 3 4 7 11 15 20 22 27 31 31 28 41 47 54 71 94 141 185 196 199 200 208 211 211 217 222 227 235 243 249 260 251 237
350 350 353 357 2 3 6 10 5 358 4 7 9 10 10 16 26 28 30 32 31 42 55 61 68 66 63 70 102 145 168 189 202 210 218 227 233 248 243 225 196 212 196 194
354 355 356 3 6 8 12 16 10 10 10 10 13 17 17 22 28 36 36 30 34 47 52 56 65 78 83 83 85 87 95 100 133 152 163 172 168 165 170 177 182 169 163 178
3 2 6 11 11 12 17 27 17 18 16 15 19 20 26 29 28 26 27 34 39 50 54 59 59 67 73 77 92 93 101 122 138 137 138 142 141 152 146 140 153 156 151 155
12 15 17 16 20 24 24 21 17 24 26 28 30 30 25 25 34 37 38 39 43 51 52 58 63 61 62 69 72 79 82 89 101 114 117 120 125 127 131 140 170 139 129 144
25 26 27 28 30 33 27 20 21 25 27 30 34 35 36 35 33 32 38 41 41 47 49 52 58 63 63 66 71 80 83 88 90 95 101 105 103 115 116 117 126 145 147 135
39 39 37 35 34 30 27 25 24 25 27 28 34 34 36 37 36 36 39 44 42 44 44 47 51 55 61 65 68 72 79 89 94 96 100 103 107 110 112 116 126 134 140 146
45 43 41 39 36 31 28 29 26 23 29 31 35 35 34 35 36 37 38 40 41 43 44 43 44 50 53 60 65 66 67 73 84 90 97 100 103 107 114 117 135 136 139 152